{"data":{"norad_id":59556,"epoch":"2026-05-24T17:54:03.896352Z","epoch_age_seconds":92900,"freshness":"FRESH","line1":"1 59556U 24074Y   26144.74587843  .00001147  00000+0  51205-4 0  9999","line2":"2 59556  43.0020 274.2140 0001569 284.3508  75.7169 15.27580613117644","mean_motion":15.27580613,"eccentricity":0.0001569,"inclination_deg":43.002,"raan_deg":274.214,"arg_perigee_deg":284.3508,"mean_anomaly_deg":75.7169,"bstar":5.1205e-5,"rev_number":11764,"period_min":94.266710885522,"perigee_km":481.97074068727,"apogee_km":484.12378030821,"semimajor_km":6861.1842604977,"source":"CELESTRAK","updated_at":"2026-05-25T13:38:18.983910Z"}}